• In Hungary
  • List of Countries
  • For 7 days
  • Water Temperature
  • Satellite Maps
  • Weather Map
  • News
  • Weather Widgets
  • user-avatar
    Login

    Hourly Weather Vrchlabi

    Today, 25 June, Monday

    Time Temperature Precipitation Wind Pressure Humidity
    00:00 +9°C° 0 mm 1 mps 719 mmHg 94%
    01:00 +9°C° 0 mm 1 mps 719 mmHg 96%
    02:00 +9°C° 0 mm 1 mps 719 mmHg 96%
    03:00 +9°C° 0 mm 1 mps 719 mmHg 96%
    04:00 +9°C° 0 mm 1 mps 719 mmHg 96%
    05:00 +10°C° 0 mm 1 mps 719 mmHg 91%
    06:00 +11°C° 0 mm 1 mps 720 mmHg 87%
    07:00 +13°C° 0 mm 1 mps 720 mmHg 82%
    08:00 +14°C° 0.1 mm 1 mps 720 mmHg 77%
    09:00 +15°C° 0.1 mm 2 mps 720 mmHg 73%
    10:00 +16°C° 0.1 mm 2 mps 721 mmHg 68%
    11:00 +17°C° 0.2 mm 2 mps 721 mmHg 65%
    12:00 +18°C° 0.2 mm 3 mps 721 mmHg 61%
    13:00 +19°C° 0.2 mm 3 mps 721 mmHg 58%
    14:00 +19°C° 0.3 mm 3 mps 720 mmHg 59%
    15:00 +19°C° 0.3 mm 3 mps 720 mmHg 60%
    16:00 +19°C° 0.3 mm 3 mps 720 mmHg 61%
    17:00 +18°C° 0.2 mm 3 mps 720 mmHg 66%
    18:00 +17°C° 0.2 mm 2 mps 720 mmHg 71%
    19:00 +16°C° 0.2 mm 2 mps 720 mmHg 77%
    20:00 +15°C° 0.1 mm 2 mps 720 mmHg 81%
    21:00 +13°C° 0.1 mm 2 mps 720 mmHg 85%
    22:00 +12°C° 0.1 mm 2 mps 720 mmHg 89%
    23:00 +12°C° 0.1 mm 2 mps 720 mmHg 91%

    Tomorrow, 26 June, Tuesday

    Time Temperature Precipitation Wind Pressure Humidity
    00:00 +12°C° 0.1 mm 2 mps 721 mmHg 92%
    01:00 +11°C° 0.1 mm 1 mps 721 mmHg 94%
    02:00 +10°C° 0 mm 2 mps 721 mmHg 94%
    03:00 +10°C° 0 mm 2 mps 720 mmHg 95%
    04:00 +10°C° 0 mm 2 mps 720 mmHg 96%
    05:00 +12°C° 0 mm 2 mps 721 mmHg 93%
    06:00 +13°C° 0 mm 2 mps 721 mmHg 91%
    07:00 +14°C° 0 mm 2 mps 721 mmHg 88%
    08:00 +14°C° 0.3 mm 3 mps 721 mmHg 84%
    09:00 +16°C° 0.3 mm 3 mps 721 mmHg 79%
    10:00 +17°C° 0.3 mm 4 mps 722 mmHg 74%
    11:00 +18°C° 0.3 mm 4 mps 721 mmHg 72%
    12:00 +19°C° 0.3 mm 4 mps 721 mmHg 69%
    13:00 +19°C° 0.3 mm 4 mps 721 mmHg 66%
    14:00 +19°C° 0.5 mm 4 mps 721 mmHg 68%
    15:00 +19°C° 0.5 mm 4 mps 721 mmHg 70%
    16:00 +19°C° 0.5 mm 4 mps 720 mmHg 71%
    17:00 +18°C° 0.5 mm 4 mps 720 mmHg 75%
    18:00 +17°C° 0.5 mm 3 mps 720 mmHg 79%
    19:00 +16°C° 0.5 mm 2 mps 720 mmHg 83%
    20:00 +15°C° 0.2 mm 2 mps 720 mmHg 86%
    21:00 +14°C° 0.2 mm 2 mps 720 mmHg 89%
    22:00 +12°C° 0.2 mm 2 mps 720 mmHg 92%
    23:00 +12°C° 0 mm 2 mps 720 mmHg 92%

    Day after tomorrow, 27 June, Wednesday

    Time Temperature Precipitation Wind Pressure Humidity
    00:00 +10°C° 0 mm 2 mps 720 mmHg 93%
    01:00 +10°C° 0 mm 2 mps 720 mmHg 94%
    02:00 +9°C° 0 mm 2 mps 720 mmHg 95%
    03:00 +9°C° 0 mm 2 mps 720 mmHg 95%
    04:00 +9°C° 0 mm 2 mps 720 mmHg 96%
    05:00 +10°C° 0 mm 2 mps 720 mmHg 94%
    06:00 +11°C° 0 mm 3 mps 720 mmHg 91%
    07:00 +12°C° 0 mm 3 mps 721 mmHg 88%
    08:00 +13°C° 0 mm 3 mps 721 mmHg 84%
    09:00 +14°C° 0 mm 3 mps 721 mmHg 80%
    10:00 +15°C° 0 mm 4 mps 721 mmHg 76%
    11:00 +17°C° 0.2 mm 4 mps 721 mmHg 73%
    12:00 +18°C° 0.2 mm 4 mps 721 mmHg 70%
    13:00 +19°C° 0.2 mm 5 mps 721 mmHg 66%
    14:00 +19°C° 0.4 mm 5 mps 721 mmHg 68%
    15:00 +19°C° 0.4 mm 5 mps 721 mmHg 69%
    16:00 +19°C° 0.4 mm 5 mps 721 mmHg 70%
    17:00 +17°C° 0.4 mm 5 mps 721 mmHg 76%
    18:00 +15°C° 0.4 mm 4 mps 721 mmHg 82%
    19:00 +14°C° 0.4 mm 4 mps 721 mmHg 88%
    20:00 +14°C° 0.1 mm 3 mps 721 mmHg 90%
    21:00 +13°C° 0.1 mm 3 mps 720 mmHg 91%
    22:00 +12°C° 0.1 mm 3 mps 720 mmHg 93%
    23:00 +12°C° 0 mm 3 mps 720 mmHg 93%

    28 June, Thursday

    Time Temperature Precipitation Wind Pressure Humidity
    00:00 +12°C° 0 mm 3 mps 720 mmHg 94%
    01:00 +12°C° 0 mm 3 mps 719 mmHg 95%
    02:00 +13°C° 0 mm 4 mps 719 mmHg 94%
    03:00 +13°C° 0 mm 4 mps 718 mmHg 94%
    04:00 +13°C° 0 mm 4 mps 718 mmHg 94%
    05:00 +14°C° 0.2 mm 5 mps 718 mmHg 93%
    06:00 +14°C° 0.2 mm 6 mps 718 mmHg 92%
    07:00 +15°C° 0.2 mm 6 mps 717 mmHg 91%
    08:00 +16°C° 0.3 mm 6 mps 717 mmHg 89%
    09:00 +16°C° 0.3 mm 6 mps 717 mmHg 87%
    10:00 +17°C° 0.3 mm 6 mps 717 mmHg 86%
    11:00 +17°C° 0.8 mm 6 mps 717 mmHg 86%
    12:00 +17°C° 0.8 mm 6 mps 716 mmHg 87%
    13:00 +19°C° 0.8 mm 6 mps 716 mmHg 87%
    14:00 +19°C° 0.3 mm 6 mps 716 mmHg 85%
    15:00 +20°C° 0.3 mm 6 mps 716 mmHg 82%
    16:00 +21°C° 0.3 mm 5 mps 716 mmHg 80%
    17:00 +21°C° 0.5 mm 5 mps 716 mmHg 81%
    18:00 +20°C° 0.5 mm 4 mps 716 mmHg 83%
    19:00 +20°C° 0.5 mm 4 mps 716 mmHg 84%
    20:00 +19°C° 0.3 mm 4 mps 716 mmHg 88%
    21:00 +18°C° 0.3 mm 3 mps 716 mmHg 91%
    22:00 +18°C° 0.3 mm 3 mps 716 mmHg 95%
    23:00 +17°C° 0.5 mm 3 mps 716 mmHg 95%

    29 June, Friday

    Time Temperature Precipitation Wind Pressure Humidity
    00:00 +17°C° 0.5 mm 2 mps 716 mmHg 96%
    01:00 +17°C° 0.5 mm 2 mps 716 mmHg 97%
    02:00 +17°C° 0.3 mm 2 mps 716 mmHg 97%
    03:00 +17°C° 0.3 mm 2 mps 716 mmHg 97%
    04:00 +17°C° 0.3 mm 3 mps 716 mmHg 96%
    05:00 +18°C° 0.2 mm 3 mps 716 mmHg 95%
    06:00 +18°C° 0.2 mm 3 mps 716 mmHg 93%
    07:00 +19°C° 0.2 mm 3 mps 716 mmHg 92%
    08:00 +20°C° 0.1 mm 3 mps 716 mmHg 89%
    09:00 +20°C° 0.1 mm 4 mps 716 mmHg 87%
    10:00 +21°C° 0.1 mm 4 mps 716 mmHg 85%
    11:00 +21°C° 0.1 mm 4 mps 716 mmHg 81%
    12:00 +22°C° 0.1 mm 4 mps 716 mmHg 78%
    13:00 +23°C° 0.1 mm 4 mps 716 mmHg 75%
    14:00 +25°C° 0.4 mm 4 mps 716 mmHg 74%
    15:00 +25°C° 0.4 mm 4 mps 716 mmHg 73%
    16:00 +25°C° 0.4 mm 4 mps 716 mmHg 73%
    17:00 +25°C° 0.5 mm 4 mps 716 mmHg 76%
    18:00 +24°C° 0.5 mm 3 mps 716 mmHg 80%
    19:00 +22°C° 0.5 mm 3 mps 716 mmHg 84%
    20:00 +21°C° 0 mm 3 mps 716 mmHg 85%
    21:00 +19°C° 0 mm 3 mps 716 mmHg 87%
    22:00 +18°C° 0 mm 3 mps 717 mmHg 89%
    23:00 +17°C° 0 mm 3 mps 717 mmHg 90%

    30 June, Saturday

    Time Temperature Precipitation Wind Pressure Humidity
    00:00 +17°C° 0 mm 2 mps 717 mmHg 91%
    01:00 +16°C° 0 mm 2 mps 717 mmHg 93%
    02:00 +15°C° 0 mm 2 mps 718 mmHg 93%
    03:00 +14°C° 0 mm 2 mps 718 mmHg 94%
    04:00 +13°C° 0 mm 2 mps 718 mmHg 95%
    05:00 +13°C° 0 mm 3 mps 719 mmHg 90%
    06:00 +13°C° 0 mm 3 mps 719 mmHg 86%
    07:00 +14°C° 0 mm 3 mps 720 mmHg 81%
    08:00 +16°C° 0 mm 3 mps 720 mmHg 74%
    09:00 +17°C° 0 mm 4 mps 720 mmHg 66%
    10:00 +19°C° 0 mm 4 mps 721 mmHg 59%
    11:00 +19°C° 0 mm 4 mps 721 mmHg 54%
    12:00 +20°C° 0 mm 4 mps 721 mmHg 50%
    13:00 +21°C° 0 mm 4 mps 721 mmHg 45%
    14:00 +21°C° 0 mm 4 mps 721 mmHg 45%
    15:00 +21°C° 0 mm 4 mps 721 mmHg 45%
    16:00 +21°C° 0 mm 4 mps 721 mmHg 46%
    17:00 +20°C° 0 mm 4 mps 721 mmHg 52%
    18:00 +18°C° 0 mm 3 mps 721 mmHg 59%
    19:00 +17°C° 0 mm 2 mps 721 mmHg 65%
    20:00 +15°C° 0 mm 2 mps 721 mmHg 68%
    21:00 +14°C° 0 mm 2 mps 721 mmHg 71%
    22:00 +12°C° 0 mm 2 mps 721 mmHg 75%
    23:00 +12°C° 0 mm 1 mps 721 mmHg 75%
    Show more